TimePDT,TemperatureF,Dew PointF,Humidity,Sea Level PressureIn,VisibilityMPH,Wind Direction,Wind SpeedMPH,Gust SpeedMPH,PrecipitationIn,Events,Conditions,WindDirDegrees,DateUTC
12:15 AM,62.6,57.2,82,29.98,10.0,Calm,Calm,-,N/A,,Mostly Cloudy,0,2013-09-12 07:15:00
12:35 AM,62.6,57.2,82,29.98,10.0,Calm,Calm,-,N/A,,Overcast,0,2013-09-12 07:35:00
12:55 AM,62.6,57.2,82,29.98,10.0,Calm,Calm,-,N/A,,Overcast,0,2013-09-12 07:55:00
1:15 AM,62.6,57.2,82,29.98,10.0,Calm,Calm,-,N/A,,Overcast,0,2013-09-12 08:15:00
1:35 AM,62.6,57.2,82,29.98,10.0,Calm,Calm,-,N/A,,Overcast,0,2013-09-12 08:35:00
1:55 AM,62.6,57.2,82,29.98,10.0,Calm,Calm,-,N/A,,Overcast,0,2013-09-12 08:55:00
2:15 AM,62.6,57.2,82,29.98,10.0,West,3.5,-,N/A,,Overcast,280,2013-09-12 09:15:00
2:35 AM,62.6,57.2,82,29.97,10.0,WNW,3.5,-,N/A,,Overcast,300,2013-09-12 09:35:00
2:55 AM,64.4,57.2,77,29.97,10.0,WNW,3.5,-,N/A,,Overcast,290,2013-09-12 09:55:00
3:15 AM,64.4,57.2,77,29.97,10.0,NW,3.5,-,N/A,,Overcast,320,2013-09-12 10:15:00
3:35 AM,64.4,57.2,77,29.97,10.0,WNW,3.5,-,N/A,,Overcast,290,2013-09-12 10:35:00
3:55 AM,64.4,57.2,77,29.97,10.0,West,3.5,-,N/A,,Overcast,260,2013-09-12 10:55:00
4:15 AM,64.4,57.2,77,29.96,10.0,Calm,Calm,-,N/A,,Overcast,0,2013-09-12 11:15:00
4:35 AM,64.4,57.2,77,29.96,10.0,Calm,Calm,-,N/A,,Overcast,0,2013-09-12 11:35:00
4:55 AM,64.4,57.2,77,29.97,10.0,West,3.5,-,N/A,,Overcast,260,2013-09-12 11:55:00
5:15 AM,64.4,57.2,77,29.97,10.0,WNW,5.8,-,N/A,,Overcast,300,2013-09-12 12:15:00
5:35 AM,64.4,57.2,77,29.97,10.0,West,3.5,-,N/A,,Overcast,260,2013-09-12 12:35:00
5:55 AM,64.4,57.2,77,29.97,10.0,WSW,3.5,-,N/A,,Overcast,250,2013-09-12 12:55:00
6:15 AM,64.4,57.2,77,29.97,10.0,WNW,3.5,-,N/A,,Overcast,300,2013-09-12 13:15:00
6:35 AM,64.4,57.2,77,29.97,10.0,Calm,Calm,-,N/A,,Overcast,0,2013-09-12 13:35:00
6:49 AM,62.6,57.2,82,29.97,10.0,Calm,Calm,-,N/A,,Overcast,0,2013-09-12 13:49:00
6:55 AM,62.6,57.2,82,29.97,10.0,Calm,Calm,-,N/A,,Overcast,0,2013-09-12 13:55:00
7:47 AM,64.4,57.2,77,29.98,10.0,SSW,3.5,-,N/A,,Overcast,210,2013-09-12 14:47:00
8:51 AM,64.4,57.2,77,29.99,10.0,SSW,4.6,-,N/A,,Overcast,200,2013-09-12 15:51:00
9:23 AM,64.4,57.2,77,29.99,10.0,West,3.5,-,N/A,,Overcast,280,2013-09-12 16:23:00
9:47 AM,64.4,57.2,77,30.00,10.0,Calm,Calm,-,N/A,,Overcast,0,2013-09-12 16:47:00
10:47 AM,66.2,59.0,78,29.99,10.0,Variable,3.5,-,N/A,,Overcast,0,2013-09-12 17:47:00
11:47 AM,66.2,59.0,78,29.99,10.0,NE,4.6,-,N/A,,Mostly Cloudy,40,2013-09-12 18:47:00
12:28 PM,68.0,60.8,78,29.97,10.0,NNE,8.1,-,N/A,,Scattered Clouds,20,2013-09-12 19:28:00
12:50 PM,68.0,60.8,78,29.97,10.0,North,9.2,-,N/A,,Scattered Clouds,10,2013-09-12 19:50:00
1:49 PM,71.6,59.0,64,29.95,10.0,North,9.2,-,N/A,,Partly Cloudy,350,2013-09-12 20:49:00
2:47 PM,73.4,57.2,57,29.93,10.0,North,9.2,-,N/A,,Clear,360,2013-09-12 21:47:00
3:47 PM,75.2,59.0,57,29.91,10.0,NNW,11.5,-,N/A,,Clear,340,2013-09-12 22:47:00
4:47 PM,73.4,57.2,57,29.90,10.0,West,13.8,-,N/A,,Partly Cloudy,280,2013-09-12 23:47:00
5:47 PM,68.0,57.2,68,29.91,10.0,West,19.6,-,N/A,,Partly Cloudy,270,2013-09-13 00:47:00
6:47 PM,64.4,57.2,77,29.92,10.0,WNW,13.8,18.4,N/A,,Partly Cloudy,290,2013-09-13 01:47:00
7:47 PM,62.6,57.2,82,29.92,10.0,West,9.2,-,N/A,,Partly Cloudy,280,2013-09-13 02:47:00
8:47 PM,62.6,57.2,82,29.94,10.0,WNW,10.4,16.1,N/A,,Scattered Clouds,290,2013-09-13 03:47:00
9:15 PM,62.6,57.2,82,29.94,10.0,WNW,11.5,-,N/A,,Clear,290,2013-09-13 04:15:00
9:35 PM,62.6,57.2,82,29.95,10.0,WNW,6.9,-,N/A,,Clear,290,2013-09-13 04:35:00
9:55 PM,62.6,57.2,82,29.95,10.0,WNW,9.2,-,N/A,,Clear,300,2013-09-13 04:55:00
10:15 PM,60.8,57.2,88,29.95,10.0,WNW,9.2,-,N/A,,Clear,300,2013-09-13 05:15:00
10:35 PM,62.6,57.2,82,29.95,10.0,WNW,6.9,-,N/A,,Clear,300,2013-09-13 05:35:00
10:55 PM,62.6,57.2,82,29.94,10.0,NW,5.8,-,N/A,,Clear,310,2013-09-13 05:55:00
11:15 PM,60.8,57.2,88,29.94,10.0,NW,5.8,-,N/A,,Clear,310,2013-09-13 06:15:00
11:35 PM,60.8,57.2,88,29.94,10.0,WNW,4.6,-,N/A,,Partly Cloudy,300,2013-09-13 06:35:00
11:55 PM,60.8,55.4,82,29.94,10.0,NW,5.8,-,N/A,,Mostly Cloudy,310,2013-09-13 06:55:00